�������l�o���
Date,Time,MP-1(��Sv/h),MP-2(��Sv/h),MP-3(��Sv/h),MP-4(��Sv/h),MP-5(��Sv/h),MP-6(��Sv/h),MP-7(��Sv/h),MP-8(��Sv/h),����,����(m/s),���J
2017/02/10,00:00,0.998,1.660,1.098,1.917,1.301,0.543,0.996,0.930,�k�k��,10.3,�L
2017/02/10,00:10,0.996,1.661,1.097,1.914,1.297,0.543,0.995,0.930,�k�k��,8.9,�L
2017/02/10,00:20,0.997,1.660,1.096,1.914,1.299,0.542,0.998,0.931,�k�k��,9.3,�L
2017/02/10,00:30,0.996,1.660,1.098,1.913,1.299,0.542,0.997,0.929,�k�k��,9.3,�L
2017/02/10,00:40,0.994,1.658,1.092,1.913,1.295,0.544,0.995,0.931,�k�k��,8.5,�L
2017/02/10,00:50,0.994,1.657,1.094,1.906,1.298,0.543,0.997,0.928,�k�k��,9.5,�L
2017/02/10,01:00,0.991,1.656,1.094,1.908,1.298,0.542,0.994,0.928,�k�k��,9.5,�L
2017/02/10,01:10,0.992,1.656,1.096,1.908,1.295,0.542,0.994,0.929,�k�k��,11.0,�L
2017/02/10,01:20,0.989,1.657,1.093,1.907,1.297,0.543,0.994,0.928,�k�k��,9.7,�L
2017/02/10,01:30,0.988,1.651,1.093,1.906,1.296,0.545,0.994,0.927,�k�k��,9.2,�L
2017/02/10,01:40,0.989,1.650,1.091,1.903,1.296,0.543,0.992,0.927,�k�k��,9.1,�L
2017/02/10,01:50,0.985,1.648,1.090,1.904,1.294,0.542,0.994,0.928,�k�k��,8.4,�L
2017/02/10,02:00,0.984,1.651,1.091,1.901,1.292,0.541,0.993,0.928,�k��,9.4,�L
2017/02/10,02:10,0.982,1.645,1.090,1.901,1.293,0.540,0.991,0.927,�k�k��,9.4,�L
2017/02/10,02:20,0.983,1.648,1.088,1.901,1.293,0.543,0.992,0.929,�k�k��,8.7,�L
2017/02/10,02:30,0.983,1.646,1.088,1.899,1.290,0.541,0.991,0.928,�k�k��,9.0,�L
2017/02/10,02:40,0.980,1.647,1.088,1.900,1.288,0.541,0.993,0.928,�k�k��,9.3,�L
2017/02/10,02:50,0.980,1.646,1.088,1.897,1.289,0.541,0.991,0.926,�k�k��,9.2,�L
2017/02/10,03:00,0.979,1.643,1.086,1.899,1.290,0.539,0.992,0.926,�k�k��,8.6,�L
2017/02/10,03:10,0.977,1.644,1.088,1.898,1.289,0.541,0.991,0.927,�k�k��,8.5,�L
2017/02/10,03:20,0.980,1.643,1.084,1.898,1.289,0.542,0.992,0.928,�k�k��,8.7,�L
2017/02/10,03:30,0.976,1.646,1.087,1.898,1.287,0.541,0.991,0.928,�k��,8.8,�L
2017/02/10,03:40,0.976,1.640,1.084,1.898,1.285,0.542,0.989,0.929,�k��,9.5,�L
2017/02/10,03:50,0.976,1.636,1.083,1.892,1.287,0.541,0.990,0.926,�k��,9.5,�L
2017/02/10,04:00,0.975,1.639,1.080,1.888,1.285,0.541,0.991,0.927,�k��,10.0,�L
2017/02/10,04:10,0.974,1.639,1.080,1.892,1.284,0.541,0.991,0.926,�k�k��,8.7,�L
2017/02/10,04:20,0.974,1.638,1.081,1.893,1.282,0.541,0.991,0.926,�k�k��,8.9,�L
2017/02/10,04:30,0.972,1.639,1.082,1.892,1.282,0.541,0.991,0.927,�k�k��,7.9,�L
2017/02/10,04:40,0.974,1.639,1.081,1.891,1.281,0.541,0.990,0.929,�k�k��,8.1,�L
2017/02/10,04:50,0.973,1.635,1.082,1.896,1.282,0.541,0.989,0.928,�k�k��,8.3,�L
2017/02/10,05:00,0.970,1.632,1.080,1.891,1.278,0.542,0.990,0.925,�k�k��,7.2,�L
2017/02/10,05:10,0.970,1.632,1.079,1.892,1.280,0.539,0.991,0.925,�k��,7.5,�L
2017/02/10,05:20,0.971,1.634,1.079,1.892,1.282,0.542,0.992,0.926,�k��,7.8,�L
2017/02/10,05:30,0.971,1.631,1.079,1.893,1.280,0.541,0.989,0.927,�k�k��,7.2,��
2017/02/10,05:40,0.970,1.634,1.080,1.894,1.282,0.539,0.991,0.926,�k��,7.6,�L
2017/02/10,05:50,0.971,1.632,1.081,1.897,1.282,0.541,0.991,0.926,�k��,6.9,�L
2017/02/10,06:00,0.970,1.634,1.079,1.893,1.281,0.540,0.991,0.927,�k��,6.9,�L
2017/02/10,06:10,0.971,1.633,1.080,1.894,1.284,0.542,0.990,0.927,�k��,6.5,�L
2017/02/10,06:20,0.971,1.637,1.080,1.898,1.281,0.540,0.995,0.928,�k��,6.2,�L
2017/02/10,06:30,0.971,1.633,1.082,1.894,1.283,0.543,0.991,0.924,�k��,5.7,�L
2017/02/10,06:40,0.970,1.634,1.084,1.895,1.282,0.542,0.993,0.928,�k��,5.8,�L
2017/02/10,06:50,0.970,1.633,1.083,1.895,1.281,0.541,0.993,0.928,�k��,6.8,�L
2017/02/10,07:00,0.972,1.635,1.083,1.897,1.280,0.541,0.991,0.927,�k��,5.6,�L
2017/02/10,07:10,0.969,1.632,1.080,1.898,1.284,0.541,0.989,0.929,�k��,5.6,��
2017/02/10,07:20,0.971,1.635,1.083,1.898,1.282,0.540,0.992,0.927,�k��,6.3,��
2017/02/10,07:30,0.969,1.637,1.081,1.900,1.282,0.542,0.995,0.930,�k��,6.8,��
2017/02/10,07:40,0.971,1.640,1.082,1.902,1.284,0.539,0.994,0.927,�k��,6.7,��
2017/02/10,07:50,0.972,1.640,1.086,1.901,1.282,0.540,0.995,0.928,�k��,7.2,�L
2017/02/10,08:00,0.969,1.638,1.084,1.900,1.283,0.540,0.994,0.930,���k��,7.4,�L
2017/02/10,08:10,0.971,1.637,1.086,1.904,1.286,0.543,0.995,0.928,���k��,6.7,�L
2017/02/10,08:20,0.971,1.638,1.084,1.902,1.288,0.541,0.993,0.928,�k��,6.2,�L
2017/02/10,08:30,0.973,1.638,1.086,1.901,1.289,0.541,0.995,0.928,�k��,6.0,��
2017/02/10,08:40,0.974,1.640,1.087,1.904,1.289,0.543,0.996,0.930,�k��,4.8,��
2017/02/10,08:50,0.974,1.642,1.085,1.908,1.293,0.541,0.995,0.928,�k��,4.8,��
2017/02/10,09:00,0.975,1.645,1.090,1.908,1.297,0.543,0.996,0.929,�k��,4.5,��
2017/02/10,09:10,0.977,1.648,1.091,1.909,1.295,0.544,0.996,0.929,�k��,3.5,��
2017/02/10,09:20,0.978,1.651,1.091,1.910,1.299,0.544,0.996,0.930,�k��,4.6,��
2017/02/10,09:30,0.984,1.655,1.094,1.914,1.304,0.545,0.997,0.931,���k��,4.5,��
2017/02/10,09:40,0.985,1.658,1.097,1.912,1.307,0.544,0.999,0.930,�k��,3.8,��
2017/02/10,09:50,0.987,1.663,1.098,1.915,1.314,0.544,0.998,0.929,�k��,3.7,��
2017/02/10,10:00,0.991,1.669,1.097,1.919,1.316,0.545,0.999,0.931,���k��,2.6,��
2017/02/10,10:10,0.996,1.668,1.100,1.917,1.319,0.546,1.001,0.932,�k��,3.4,��
2017/02/10,10:20,1.000,1.672,1.100,1.922,1.324,0.545,0.999,0.930,�k��,4.4,��
2017/02/10,10:30,1.003,1.673,1.104,1.920,1.328,0.547,1.001,0.932,�k��,7.5,��
2017/02/10,10:40,1.004,1.678,1.109,1.926,1.331,0.547,1.003,0.933,���k��,5.7,��
2017/02/10,10:50,1.010,1.688,1.111,1.928,1.334,0.548,1.003,0.932,���k��,5.8,��
2017/02/10,11:00,1.010,1.687,1.111,1.932,1.339,0.548,1.001,0.934,�k��,8.1,��
2017/02/10,11:10,1.015,1.692,1.110,1.933,1.342,0.548,1.001,0.935,�k��,10.7,��
2017/02/10,11:20,1.015,1.693,1.115,1.939,1.341,0.549,0.999,0.934,�k��,11.6,��
2017/02/10,11:30,1.016,1.698,1.116,1.937,1.345,0.548,1.002,0.935,�k��,8.2,��
2017/02/10,11:40,1.017,1.694,1.118,1.942,1.348,0.550,1.003,0.935,�k�k��,8.3,��
2017/02/10,11:50,1.014,1.695,1.119,1.945,1.352,0.550,1.002,0.936,�k��,9.7,��
2017/02/10,12:00,1.019,1.698,1.119,1.945,1.351,0.549,1.004,0.937,�k��,8.5,��
2017/02/10,12:10,1.018,1.700,1.120,1.949,1.354,0.548,1.004,0.935,�k��,9.5,��
2017/02/10,12:20,1.021,1.702,1.120,1.950,1.355,0.550,1.005,0.936,�k��,7.8,��
2017/02/10,12:30,1.021,1.702,1.121,1.949,1.355,0.552,1.007,0.938,�k��,8.8,��
2017/02/10,12:40,1.022,1.709,1.121,1.950,1.356,0.551,1.004,0.937,�k�k��,7.1,��
2017/02/10,12:50,1.022,1.709,1.121,1.953,1.355,0.553,1.007,0.936,�k��,8.2,��
2017/02/10,13:00,1.019,1.708,1.123,1.953,1.356,0.553,1.005,0.939,�k��,8.8,��
2017/02/10,13:10,1.024,1.707,1.123,1.955,1.358,0.552,1.007,0.937,�k�k��,8.0,��
2017/02/10,13:20,1.022,1.709,1.124,1.955,1.358,0.552,1.006,0.938,�k��,6.8,��
2017/02/10,13:30,1.024,1.715,1.126,1.957,1.358,0.552,1.009,0.936,���k��,4.7,��
2017/02/10,13:40,1.025,1.712,1.125,1.957,1.360,0.550,1.009,0.940,���k��,5.6,��
2017/02/10,13:50,1.023,1.710,1.125,1.960,1.358,0.550,1.010,0.938,���k��,5.7,��
2017/02/10,14:00,1.023,1.712,1.126,1.956,1.360,0.551,1.009,0.938,���k��,5.9,��
2017/02/10,14:10,1.024,1.712,1.126,1.959,1.360,0.551,1.009,0.938,���k��,7.5,��
2017/02/10,14:20,1.025,1.714,1.123,1.962,1.360,0.552,1.008,0.939,���k��,9.5,��
2017/02/10,14:30,1.025,1.716,1.127,1.957,1.361,0.553,1.009,0.936,���k��,9.8,��
2017/02/10,14:40,1.024,1.718,1.126,1.965,1.361,0.551,1.010,0.939,���k��,7.5,��
2017/02/10,14:50,1.024,1.717,1.125,1.960,1.361,0.552,1.010,0.938,�k��,6.0,��
2017/02/10,15:00,1.026,1.716,1.126,1.964,1.361,0.552,1.008,0.939,���k��,6.4,��
2017/02/10,15:10,1.024,1.718,1.126,1.963,1.362,0.553,1.010,0.938,�k��,7.5,��
2017/02/10,15:20,1.028,1.719,1.126,1.966,1.362,0.551,1.009,0.937,�k��,5.9,��
2017/02/10,15:30,1.025,1.718,1.127,1.964,1.364,0.553,1.008,0.938,�k��,7.6,��
2017/02/10,15:40,1.024,1.718,1.127,1.966,1.362,0.552,1.010,0.938,���k��,6.7,��
2017/02/10,15:50,1.025,1.719,1.128,1.966,1.364,0.552,1.009,0.938,���k��,4.4,��
2017/02/10,16:00,1.026,1.721,1.130,1.969,1.362,0.553,1.009,0.936,�k��,3.7,��
2017/02/10,16:10,1.024,1.719,1.127,1.970,1.363,0.552,1.009,0.939,�k��,3.8,��
2017/02/10,16:20,1.025,1.720,1.129,1.968,1.364,0.553,1.010,0.939,�k��,4.9,��
2017/02/10,16:30,1.027,1.723,1.128,1.971,1.365,0.552,1.009,0.939,�k��,6.9,��
2017/02/10,16:40,1.027,1.720,1.128,1.968,1.364,0.552,1.010,0.939,�k��,5.4,��
2017/02/10,16:50,1.025,1.720,1.127,1.967,1.368,0.552,1.011,0.939,�k��,5.8,��
2017/02/10,17:00,1.029,1.720,1.128,1.968,1.365,0.553,1.009,0.939,�k��,7.7,��
2017/02/10,17:10,1.025,1.721,1.127,1.968,1.365,0.553,1.009,0.938,�k��,5.7,��
2017/02/10,17:20,1.027,1.721,1.128,1.969,1.364,0.553,1.011,0.939,�k�k��,5.5,��
2017/02/10,17:30,1.025,1.723,1.129,1.967,1.366,0.552,1.010,0.939,�k��,5.1,��
2017/02/10,17:40,1.025,1.719,1.125,1.970,1.364,0.551,1.009,0.938,�k��,4.5,��
2017/02/10,17:50,1.022,1.722,1.127,1.972,1.364,0.552,1.010,0.938,�k��,5.6,��
2017/02/10,18:00,1.024,1.723,1.126,1.970,1.366,0.550,1.009,0.938,�k��,7.9,��
2017/02/10,18:10,1.026,1.723,1.128,1.970,1.365,0.552,1.010,0.940,�k�k��,9.3,��
2017/02/10,18:20,1.026,1.724,1.126,1.970,1.365,0.552,1.009,0.939,�k��,7.0,��
2017/02/10,18:30,1.024,1.721,1.128,1.968,1.364,0.551,1.010,0.939,�k��,9.3,��
2017/02/10,18:40,1.027,1.723,1.126,1.971,1.363,0.552,1.010,0.937,�k��,9.4,��
2017/02/10,18:50,1.024,1.721,1.127,1.970,1.364,0.551,1.009,0.939,�k��,7.4,��
2017/02/10,19:00,1.024,1.723,1.127,1.972,1.366,0.552,1.008,0.940,�k��,8.5,��
2017/02/10,19:10,1.026,1.723,1.125,1.967,1.366,0.551,1.011,0.936,���k��,7.0,��
2017/02/10,19:20,1.026,1.724,1.127,1.970,1.365,0.550,1.010,0.939,���k��,6.3,��
2017/02/10,19:30,1.022,1.724,1.126,1.972,1.364,0.550,1.008,0.937,���k��,5.7,��
2017/02/10,19:40,1.026,1.725,1.122,1.970,1.366,0.552,1.009,0.939,���k��,4.5,��
2017/02/10,19:50,1.023,1.721,1.125,1.971,1.367,0.553,1.010,0.937,���k��,4.7,��
2017/02/10,20:00,1.023,1.722,1.129,1.969,1.368,0.551,1.008,0.940,���k��,4.2,��
2017/02/10,20:10,1.026,1.722,1.126,1.972,1.367,0.552,1.008,0.937,���쐼,2.6,��
2017/02/10,20:20,1.027,1.724,1.128,1.970,1.365,0.549,1.007,0.939,���쐼,3.9,��
2017/02/10,20:30,1.025,1.721,1.125,1.969,1.363,0.550,1.007,0.938,��,4.8,��
2017/02/10,20:40,1.026,1.723,1.126,1.973,1.365,0.550,1.007,0.937,��,4.8,��
2017/02/10,20:50,1.025,1.723,1.127,1.969,1.365,0.549,1.010,0.937,��,4.3,��
2017/02/10,21:00,1.024,1.723,1.124,1.973,1.367,0.552,1.008,0.939,��,4.6,��
2017/02/10,21:10,1.026,1.724,1.125,1.972,1.367,0.550,1.006,0.939,��,5.3,��
2017/02/10,21:20,1.023,1.723,1.126,1.970,1.366,0.551,1.008,0.938,��,5.8,��
2017/02/10,21:30,1.025,1.723,1.127,1.973,1.364,0.553,1.008,0.938,��,5.5,��
2017/02/10,21:40,1.023,1.723,1.127,1.971,1.365,0.551,1.008,0.938,���k��,5.8,��
2017/02/10,21:50,1.024,1.725,1.126,1.972,1.365,0.552,1.008,0.938,���k��,6.0,��
2017/02/10,22:00,1.026,1.722,1.123,1.971,1.364,0.549,1.010,0.937,���k��,6.9,��
2017/02/10,22:10,1.025,1.723,1.127,1.971,1.364,0.551,1.009,0.938,���k��,6.1,��
2017/02/10,22:20,1.023,1.723,1.125,1.973,1.366,0.552,1.009,0.939,���k��,6.1,��
2017/02/10,22:30,1.025,1.724,1.125,1.972,1.367,0.551,1.009,0.937,���k��,6.3,��
2017/02/10,22:40,1.025,1.725,1.125,1.969,1.364,0.550,1.007,0.937,���k��,5.3,��
2017/02/10,22:50,1.022,1.725,1.127,1.974,1.366,0.550,1.009,0.937,���k��,5.6,��
2017/02/10,23:00,1.024,1.725,1.126,1.970,1.364,0.550,1.006,0.937,���k��,5.8,��
2017/02/10,23:10,1.024,1.723,1.125,1.973,1.367,0.550,1.008,0.938,���k��,5.7,��
2017/02/10,23:20,1.024,1.723,1.125,1.974,1.364,0.551,1.010,0.938,���k��,6.3,��
2017/02/10,23:30,1.023,1.724,1.125,1.970,1.366,0.549,1.011,0.937,�k��,6.3,��
2017/02/10,23:40,1.025,1.724,1.126,1.972,1.363,0.550,1.008,0.938,���k��,6.8,��
2017/02/10,23:50,1.023,1.722,1.123,1.971,1.365,0.550,1.009,0.937,���k��,5.1,��
